Starlink 1871

operational
NORAD ID: 47157 Int'l Des: 2020-088 Owner: SPXS Country: US Constellation: starlink
LEOCIRCULARSTARLINK_TYPE

Über Starlink 1871

Beschreibung wird geladen...

Live-Position

3D-Globus wird geladen...

Nächste Überflüge

Höhenverlauf

Altitude vs Time

uPlot chart will show altitude changes over time

Zweizeiliger Elementsatz

1 47157U 20088AM 26036.16668981 .01211507 00000-0 50266-1 0 9991
2 47157 53.1146 87.1899 0001382 81.4584 291.1571 15.20437134 5823
Epoch: 5. Feb. 2026 • Age: 6 hours

Aktueller Status

Höhe 506.8 km
Geschwindigkeit 7.61 km/s
Subsatellitenpunkt -14.52°S, 146.66°E
Startdatum 25. Nov. 2020
Alter 5.1 years
Typ internet

Technische Details

Klassifizierung Payload
Masse 260.00 kg
Trockenmasse 248.00 kg
Gesamtmasse 260.00 kg
Länge 0.20 m
Durchmesser 2.80 m
Spannweite 9.00 m
Form Box + pan
Hersteller SPXS
Bus-Typ Starlink
Phasenstatus In Orbit
Besitzer/Staat SPXS/US

Große Konstellationen

Loading constellations...